Huvudsida
METAR-TAF:

METAR-TAF

Flygplatser :

Lycksele flygplats

Lycksele, Sverige

latitud: 64-32-51N, longitud: 018-43-03E, höjd: 211 m

Aktuellt väderrapport

Denna rapport gjordes för 26 minuter sedan, klockan 14:20 UTC
Vind 6 kt från sydväst, varierande mellan syd/sydväst och väst
Temperatur 19°C
Fuktighet 28%
Tryck 1020 hPa
Sikt 10 km eller mer

METAR: ESNL 231420Z AUTO 23006KT 200V270 9999 NCD 19/00 Q1020

Tid: 16:46 (14:46 UTC)


TAF: saknas

Aktuella väderrapporter och prognoser från 4000 flygplatser (METAR- och TAF-rapporter).

De tillgängliga stationerna syns som gula och röda prickar på kartan.

För musen över prickarna för att se namnen på stationerna.

Klicka sedan för att få väderrapporter och prognoser.

För att ändra kartan: Klicka på de gröna knapparna med ett svart kors på för att zooma in; den gröna knappen med ett streck på för att zooma ut; eller på de gröna pilarna för angränsande kartor.


METAR-TAF: